TimePST,TemperatureF,Dew PointF,Humidity,Sea Level PressureIn,VisibilityMPH,Wind Direction,Wind SpeedMPH,Gust SpeedMPH,PrecipitationIn,Events,Conditions,WindDirDegrees,DateUTC
12:15 AM,48.2,32.0,54,30.13,10.0,North,-9999.0,-,N/A,,Clear,0,2014-02-21 08:15:00
12:35 AM,48.2,30.2,50,30.12,10.0,North,-9999.0,-,N/A,,Clear,0,2014-02-21 08:35:00
12:55 AM,48.2,30.2,50,30.12,10.0,North,-9999.0,-,N/A,,Clear,0,2014-02-21 08:55:00
1:15 AM,48.2,28.4,46,30.12,10.0,North,-9999.0,-,N/A,,Clear,0,2014-02-21 09:15:00
1:35 AM,48.2,28.4,46,30.12,10.0,North,-9999.0,-,N/A,,Clear,0,2014-02-21 09:35:00
1:55 AM,48.2,28.4,46,30.12,10.0,North,-9999.0,-,N/A,,Clear,0,2014-02-21 09:55:00
2:15 AM,48.2,28.4,46,30.12,10.0,North,-9999.0,-,N/A,,Partly Cloudy,0,2014-02-21 10:15:00
2:35 AM,48.2,26.6,43,30.11,10.0,North,-9999.0,-,N/A,,Clear,0,2014-02-21 10:35:00
2:55 AM,48.2,26.6,43,30.11,10.0,North,-9999.0,-,N/A,,Clear,0,2014-02-21 10:55:00
3:15 AM,48.2,26.6,43,30.11,10.0,North,-9999.0,-,N/A,,Clear,0,2014-02-21 11:15:00
3:35 AM,48.2,26.6,43,30.11,10.0,North,-9999.0,-,N/A,,Clear,0,2014-02-21 11:35:00
3:55 AM,48.2,24.8,40,30.11,10.0,North,-9999.0,-,N/A,,Clear,0,2014-02-21 11:55:00
4:15 AM,48.2,24.8,40,30.11,10.0,North,-9999.0,-,N/A,,Clear,0,2014-02-21 12:15:00
4:35 AM,48.2,24.8,40,30.11,10.0,North,-9999.0,-,N/A,,Clear,0,2014-02-21 12:35:00
4:55 AM,48.2,24.8,40,30.11,10.0,North,-9999.0,-,N/A,,Clear,0,2014-02-21 12:55:00
5:15 AM,46.4,24.8,43,30.11,10.0,North,-9999.0,-,N/A,,Clear,0,2014-02-21 13:15:00
5:35 AM,48.2,24.8,40,30.10,10.0,North,-9999.0,-,N/A,,Clear,0,2014-02-21 13:35:00
5:55 AM,46.4,23.0,40,30.10,10.0,North,-9999.0,-,N/A,,Clear,0,2014-02-21 13:55:00
6:15 AM,48.2,23.0,37,30.09,10.0,North,-9999.0,-,N/A,,Partly Cloudy,0,2014-02-21 14:15:00
6:35 AM,46.4,23.0,40,30.09,10.0,North,-9999.0,-,N/A,,Clear,0,2014-02-21 14:35:00
6:55 AM,46.4,23.0,40,30.10,10.0,North,-9999.0,-,N/A,,Clear,0,2014-02-21 14:55:00
7:15 AM,48.2,23.0,37,30.10,10.0,North,-9999.0,-,N/A,,Clear,0,2014-02-21 15:15:00
7:35 AM,48.2,23.0,37,30.10,10.0,North,-9999.0,-,N/A,,Clear,0,2014-02-21 15:35:00
7:55 AM,50.0,24.8,37,30.11,10.0,North,-9999.0,-,N/A,,Clear,0,2014-02-21 15:55:00
8:15 AM,50.0,24.8,37,30.11,10.0,North,-9999.0,-,N/A,,Clear,0,2014-02-21 16:15:00
8:35 AM,51.8,26.6,38,30.11,10.0,Calm,Calm,-,N/A,,Clear,0,2014-02-21 16:35:00
8:55 AM,53.6,24.8,33,30.11,10.0,Calm,Calm,-,N/A,,Clear,0,2014-02-21 16:55:00
9:15 AM,55.4,26.6,33,30.12,10.0,Calm,Calm,-,N/A,,Clear,0,2014-02-21 17:15:00
9:35 AM,57.2,28.4,33,30.12,10.0,Calm,Calm,-,N/A,,Clear,0,2014-02-21 17:35:00
9:55 AM,57.2,28.4,33,30.12,10.0,Calm,Calm,-,N/A,,Clear,0,2014-02-21 17:55:00
10:15 AM,57.2,30.2,36,30.12,10.0,Calm,Calm,-,N/A,,Clear,0,2014-02-21 18:15:00
10:35 AM,57.2,28.4,33,30.12,10.0,Calm,Calm,-,N/A,,Clear,0,2014-02-21 18:35:00
10:55 AM,57.2,28.4,33,30.12,10.0,Calm,Calm,-,N/A,,Clear,0,2014-02-21 18:55:00
11:15 AM,57.2,28.4,33,30.12,10.0,Calm,Calm,-,N/A,,Clear,0,2014-02-21 19:15:00
11:35 AM,57.2,30.2,36,30.11,10.0,WNW,5.8,-,N/A,,Clear,290,2014-02-21 19:35:00
11:55 AM,57.2,30.2,36,30.10,10.0,West,4.6,-,N/A,,Clear,280,2014-02-21 19:55:00
12:15 PM,59.0,30.2,34,30.09,10.0,WNW,6.9,-,N/A,,Clear,290,2014-02-21 20:15:00
12:35 PM,59.0,30.2,34,30.08,10.0,WNW,8.1,-,N/A,,Clear,290,2014-02-21 20:35:00
12:55 PM,59.0,32.0,36,30.08,10.0,WNW,8.1,-,N/A,,Clear,300,2014-02-21 20:55:00
1:15 PM,59.0,32.0,36,30.07,10.0,WNW,9.2,-,N/A,,Clear,290,2014-02-21 21:15:00
1:35 PM,60.8,32.0,34,30.06,10.0,NNW,5.8,-,N/A,,Clear,340,2014-02-21 21:35:00
1:55 PM,62.6,32.0,32,30.06,10.0,WNW,5.8,-,N/A,,Clear,290,2014-02-21 21:55:00
2:15 PM,62.6,33.8,34,30.05,10.0,NNW,4.6,-,N/A,,Clear,330,2014-02-21 22:15:00
2:35 PM,60.8,32.0,34,30.05,10.0,West,4.6,-,N/A,,Clear,270,2014-02-21 22:35:00
2:55 PM,60.8,32.0,34,30.05,10.0,WNW,5.8,-,N/A,,Clear,290,2014-02-21 22:55:00
3:15 PM,59.0,32.0,36,30.05,10.0,West,8.1,-,N/A,,Clear,280,2014-02-21 23:15:00
3:35 PM,59.0,32.0,36,30.04,10.0,WNW,5.8,-,N/A,,Clear,300,2014-02-21 23:35:00
11:55 PM,48.2,32.0,54,30.01,10.0,ENE,10.4,-,N/A,,Clear,70,2014-02-22 07:55:00